sat.trackr.live / text

‹ back to catalog

STARLINK-33938

NORAD 63778 · 2025-091D

PAYLOAD ACTIVE UNKNOWN

§ Identity

Operator
Country
US
Launch date
2025-05-02
Launch site
AFETR
Launch vehicle
Mass (kg)
RCS (m²)

Purposes: comms

External: N2YO · Heavens-Above · Gunter

§ Orbital elements

Epoch: 2026-05-24T22:40:41.881152Z

Period
94.27 min
Inclination
43.0041°
Eccentricity
0.0002226
Mean motion
15.27593495 rev/d
Perigee alt
481.5 km
Apogee alt
484.5 km
Semi-major
6,861.1 km
B*
8.5898e-4
RAAN
341.9531°
Arg perigee
279.1853°
Mean anomaly
80.8746°
Rev number
6,065

§ Raw data

STARLINK-339381 63778U 25091D   26144.94492918  .00023461  00000+0  85898-3 0  99972 63778  43.0041 341.9531 0002226 279.1853  80.8746 15.27593495 60658

JSON: /api/v1/satellites/63778 · /tle

For live sub-satellite position, see the globe view (requires WebGL).

§ Visibility from observer

Set your observer location to see the next 7 days of passes ≥ 10°. The values pass through the URL so the page stays shareable.

No JS? Fill the form by hand. The geolocation button needs JavaScript.